Location: Düngen
(52.0952°N, 10.0219°E)
Time: 19:31:22
(UTC+00:00)

USA 276 - Pass Details

Date: 11 March 2026
Orbit: 366 x 369 km, 50.0° (Epoch: 12 July)

Event Time Altitude Azimuth Distance (km) Brightness Sun altitude
Rises 17:49:32 0° 240° (WSW) 2,169 7.0 -5.8°
Reaches altitude 10° 17:51:42 10° 232° (SW) 1,300 5.6 -6.1°
Maximum altitude 17:54:24 35° 164° (SSE) 557 2.7 -6.5°
Drops below altitude 10° 17:56:56 10° 95° (E) 1,209 3.9 -6.9°
Enters shadow 17:56:59 10° 95° (E) 1,229 3.9 -6.9°
